Flag for India Weather past 2 weeks in Chennai, Tamil Nadu, India

Now
90 °F

Broken clouds.


Feels Like: 100 °F
Forecast: 85 / 98 °F
Wind: 12 mph from South

Location: Madras / Minambakkam

Current Time: May 27, 2015 at 5:53:30 PM

Latest Report: May 27, 2015 at 3:40 PM


Visibility: 3 mi

Pressure: 29.56 "Hg

Humidity: 63%

Dew point: 75 °F

Location of ChennaiLocation

Historic Weather in Chennai — Graph

°F

Chennai temperature yesterday

Maximum temperature yesterday: 102 °F (at 1:40 PM)
Minimum temperature yesterday: 86 °F (at 3:40 AM)
Average temperature yesterday: 92 °F

Past Weeks' High & Low Weather Summary

 TemperatureHumidityPressure
High108 °F (May 24, 3:10 PM)94% (May 14, 2:10 AM)29.83 "Hg (May 14, 2:10 AM)
Low79 °F (May 16, 10:10 AM)28% (May 25, 3:10 PM)29.56 "Hg (May 21, 3:10 PM)
Average89 °F71%29.68 "Hg
* Reported May 12 3:40 PM — May 27 3:40 PM, Chennai, Weather by CustomWeather, © 2015

Note: Actual official high and low records may vary slightly from our data, if they occured in-between our weather recording intervals... More about our weather records

Advertising

Chennai weather history for previous 24 hours

 ConditionsComfort  
Time TempWeatherWind HumidityBarometerVisibility
3:40 PM
Wed, May 27
90 °FBroken clouds.12 mph63%29.56 "Hg3 mi
3:10 PM88 °FBroken clouds.17 mph70%29.59 "Hg3 mi
2:40 PM88 °FBroken clouds.12 mph70%29.59 "Hg3 mi
2:10 PM90 °FScattered clouds.12 mph71%29.59 "Hg3 mi
1:10 PM100 °FScattered clouds.12 mph45%29.62 "Hg3 mi
12:40 PM99 °FHaze.10 mph47%29.62 "Hg3 mi
12:10 PM99 °FScattered clouds.13 mph47%29.65 "Hg3 mi
11:40 AM99 °FHaze.12 mph47%29.65 "Hg3 mi
11:10 AM99 °FHaze.15 mph47%29.68 "Hg3 mi
10:40 AM99 °FHaze.14 mph47%29.68 "Hg3 mi
10:10 AM97 °FHaze.16 mph50%29.68 "Hg3 mi
9:40 AM95 °FHaze.12 mph56%29.68 "Hg3 mi
8:40 AM91 °FHaze.15 mph63%29.68 "Hg3 mi
8:10 AM91 °FHaze.10 mph63%29.68 "Hg3 mi
7:40 AM90 °FClear.13 mph67%29.68 "Hg4 mi
7:10 AM88 °FPassing clouds.13 mph70%29.68 "Hg4 mi
6:40 AM86 °FPassing clouds.10 mph75%29.68 "Hg4 mi
6:10 AM86 °FPassing clouds.10 mph75%29.65 "Hg4 mi
5:40 AM86 °FPassing clouds.12 mph75%29.65 "Hg4 mi
5:10 AM86 °FPassing clouds.13 mph75%29.65 "Hg4 mi
4:40 AM86 °FPassing clouds.12 mph79%29.65 "Hg4 mi
4:10 AM86 °FPassing clouds.13 mph79%29.62 "Hg4 mi
3:40 AM86 °FPassing clouds.10 mph79%29.62 "Hg4 mi
2:40 AM88 °FPassing clouds.12 mph79%29.62 "Hg4 mi
2:10 AM88 °FPassing clouds.12 mph79%29.62 "Hg4 mi
1:40 AM88 °FPassing clouds.12 mph79%29.65 "Hg4 mi
1:10 AM88 °FPassing clouds.12 mph79%29.65 "Hg4 mi
12:40 AM88 °FPassing clouds.14 mph79%29.65 "Hg4 mi
12:10 AM88 °FPassing clouds.12 mph79%29.68 "Hg4 mi
11:40 PM
Tue, May 26
88 °FPassing clouds.8 mph79%29.68 "Hg4 mi
11:10 PM88 °FPassing clouds.7 mph79%29.71 "Hg4 mi
10:40 PM88 °FPassing clouds.9 mph79%29.71 "Hg4 mi
10:10 PM88 °FPassing clouds.9 mph79%29.71 "Hg4 mi
9:10 PM90 °FPassing clouds.7 mph71%29.68 "Hg4 mi
8:40 PM90 °FPassing clouds.10 mph71%29.68 "Hg4 mi
8:10 PM90 °FPassing clouds.10 mph71%29.68 "Hg4 mi
7:40 PM90 °FPassing clouds.12 mph71%29.65 "Hg4 mi
7:10 PM91 °FPassing clouds.10 mph63%29.65 "Hg4 mi
6:40 PM91 °FScattered clouds.12 mph63%29.62 "Hg4 mi
6:10 PM93 °FScattered clouds.13 mph59%29.62 "Hg4 mi
5:40 PM93 °FScattered clouds.9 mph63%29.62 "Hg4 mi
5:10 PM95 °FScattered clouds.10 mph60%29.62 "Hg4 mi
Weather by CustomWeather, © 2015

See weather overviewHow to use our weather pages